Regional Weather Roundup
Issued by NWS Kansas City/Pleasant Hill, MO

Home | Current Version | Previous Version | Graphics & Text | Print | Product List | Glossary Off
Versions: 1 2 3 4 5 6 7 8 9 10 11 12 13 14 15 16 17 18 19 20 21 22 23 24 25 26 27

000
ASUS43 KEAX 211410
RWREAX

WEATHER ROUNDUP FOR EASTERN KANSAS AND NORTHWEST MISSOURI
NATIONAL WEATHER SERVICE KANSAS CITY/PLEASANT HILL MO
900 AM CDT WED JUN 21 2017

KSZ040-057-103>105-MOZ028-029-037-043-211500-
...KANSAS CITY METROPOLITAN AREA...

CITY           SKY/WX    TMP DP  RH WIND       PRES   REMARKS
K.C. INTL      FAIR      79  67  66 SW10      29.91R
K.C. DOWNTOWN  NOT AVBL
LEES SUMMIT    FAIR      81  67  62 SW15      29.93R
OLATHE - IXD   FAIR      79  67  66 SW12      29.94R
OLATHE - OJC   FAIR      79  67  66 SW10      29.94R
LAWRENCE       FAIR      82  68  62 S5        29.91S

$$

MOZ001>008-011>017-020>025-030>033-038>040-044>046-053-054-211500-
...NORTHERN AND CENTRAL MISSOURI...

CITY           SKY/WX    TMP DP  RH WIND       PRES   REMARKS
ST. JOSEPH     FAIR      81  69  67 SW12      29.88S
MOSBY          FAIR      82  63  51 W5        29.91R
WARRENSBURG    FAIR      77  66  69 S8        29.93S
WHITEMAN AFB   NOT AVBL
CLINTON        FAIR      79  68  69 SW9       29.96R
SEDALIA        FAIR      80  69  69 SW12      29.96R
WARSAW         NOT AVBL
CHILLICOTHE      N/A     79  70  74 SW3       29.91S
KIRKSVILLE     NOT AVBL

$$

MOZ041-047>049-056>058-063>065-088>090-097-211500-
...EASTERN AND SOUTHERN MISSOURI...

CITY           SKY/WX    TMP DP  RH WIND       PRES   REMARKS
ST. LOUIS INTL FAIR      86  66  51 NW5       29.96R
JEFFERSON CITY FAIR      79  67  66 CALM      29.95S
ROLLA          FAIR      76  67  73 S14       30.00R
SPRINGFIELD    FAIR      78  64  61 S10       30.01R
BRANSON        MOSUNNY   81  63  54 CALM      30.04R
JOPLIN         FAIR      81  68  64 S10       29.99S
WEST PLAINS    FAIR      79  64  60 SW7       30.04S

$$

IAZ060-094-KSZ022-034>040-054-083-096-NEZ052-066-093-211500-
...KANSAS...SOUTHEAST NEBRASKA AND IOWA...

CITY           SKY/WX    TMP DP  RH WIND       PRES   REMARKS
TOPEKA         FAIR      81  67  62 SW12G20   29.90S
MANHATTAN      FAIR      83  65  54 SW12      29.87S
EMPORIA        FAIR      80  65  59 SW13      29.93S
CHANUTE        FAIR      79  67  66 SW9       29.96R
WICHITA        PTSUNNY   80  65  59 S17G24    29.93S
OMAHA          FAIR      80  65  59 S9        29.78F
FALLS CITY     FAIR      82  64  54 SW10      29.85S
LAMONI         FAIR      74  65  73 E7        29.90S

$$





USA.gov is the U.S. government's official web portal to all federal, state and local government web resources and services.